OpenBCM V1.13 (Linux)

Packet Radio Mailbox

DB0FHN

[JN59NK Nuernberg]

 Login: GUEST





  
I0OJJ  > KEPS     05.02.25 06:33l 336 Lines 15892 Bytes #999 (0) @ AMSAT
BID : ORB25036.1
Read: DJ6UX GUEST
Subj: 2Line Orbital Elements 25036.AMSAT
Path: DB0FHN<DB0RKB<DK0WUE<DB0ERF<IZ3LSV<I0OJJ<I0OJJ
Sent: 250205/0345z @:I0OJJ.ITA.EU [Rome] obcm1.08-6-g5b69

>From i0ojj%i0ojj.ita.eu@i0ojj.ampr.org Wed Feb  5 04:45:08 2025
Received: from i0ojj.ampr.org by i0ojj.ampr.org (JNOS2.0p.5) with SMTP
	id AA17020327 ; Wed, 05 Feb 2025 04:45:08 +0100
Message-Id: <ORB25036.1@i0ojj.bbs>
>From: i0ojj@i0ojj.ita.eu
X-JNOS-User-Port: Uplink   (I0OJJ-2 on port hub)  ->  Sending message

From: I0OJJ @ I0OJJ.ITA.EU (Gustavo)
To:   KEPS @ AMSAT
X-Info: This message was generated automatically


QST de W1STR

AMSAT Orbital Elements for Amateur Satellites in TLE Format
>From Orbital Analysis Office
New England Sci-Tech STEM Education Center
Natick, MA February 05, 2025
To all radio amateurs


These element sets describe the orbits of various satellites 
in use by the amateur radio community. For details see:
www.amsat.org/keplerian-elements-formats/

A daily update of element sets is available at:
www.amsat.org/tle/daily-bulletin.txt
or without bulletin text:
www.amsat.org/tle/dailytle.txt


AO-07
1 07530U 74089B   25035.53555054 -.00000029  00000-0  10910-3 0  9996
2 07530 101.9929  38.4705 0012193   2.1072 120.7495 12.53685718298152
UO-11
1 14781U 84021B   25035.47920355  .00003225  00000-0  35155-3 0  9990
2 14781  97.7383   4.5090 0008918  39.8611 320.3260 14.88627434183029
AO-27
1 22825U 93061C   25035.10870301  .00000259  00000-0  11609-3 0  9999
2 22825  98.7563  95.9376 0009395 117.7829 242.4306 14.30722039635779
FO-29
1 24278U 96046B   25035.28258272  .00000068  00000-0  10835-3 0  9993
2 24278  98.5880 305.5882 0349216 307.2789  49.6978 13.53235893405829
NOAA-15
1 25338U 98030A   25035.78682164  .00000381  00000-0  17452-3 0  9992
2 25338  98.5492  63.8439 0010340  10.8227 349.3174 14.26875270390602
GO-32
1 25397U 98043D   25035.85759770  .00000286  00000-0  14399-3 0  9998
2 25397  98.9557  12.4749 0001201 158.5769 201.5460 14.24247893380758
ISS
1 25544U 98067A   25035.62619039  .00014709  00000-0  26709-3 0  9999
2 25544  51.6374 243.6061 0003513 275.7741 124.9443 15.49797991494606
NO-44
1 26931U 01043C   25035.52871345  .00000444  00000-0  19780-3 0  9999
2 26931  67.0505  91.1364 0006098 263.1411  96.8998 14.31608281219208
SO-50
1 27607U 02058C   25035.52200350  .00002881  00000-0  38489-3 0  9993
2 27607  64.5527 226.3633 0041144   6.0997 354.0600 14.80893178190707
CO-55
1 27844U 03031E   25035.53119755  .00000849  00000-0  39010-3 0  9990
2 27844  98.6788  45.4148 0009557 184.1527 175.9574 14.23803437120874
CO-57
1 27848U 03031J   25035.49252713  .00000715  00000-0  33562-3 0  9999
2 27848  98.6815  45.4746 0009142 201.3935 158.6862 14.23166351120570
RS-22
1 27939U 03042A   25035.81489535  .00002865  00000-0  46734-3 0  9995
2 27939  98.3124 202.3883 0012370  48.4068  58.6287 14.71710411142479
NOAA-18
1 28654U 05018A   25035.76153959  .00000392  00000-0  23155-3 0  9992
2 28654  98.8532 116.6069 0015099 122.6489 237.6142 14.13506852 16116
CO-58
1 28895U 05043F   25035.32627846  .00004037  00000-0  67919-3 0  9996
2 28895  98.2278 178.3359 0014648 347.4588  12.6251 14.70086365 28533
CO-65
1 32785U 08021C   25035.54239614  .00010591  00000-0  81152-3 0  9991
2 32785  97.7665   6.1024 0008677 279.4672  80.5571 15.02001199910290
AAUSAT2
1 32788U 08021F   25035.45003253  .00098346  00000-0  20021-2 0  9993
2 32788  97.6062  26.6359 0007458  87.7524 272.4579 15.45876143913810
CO-66
1 32791U 08021J   25034.86494831  .00019649  00000-0  10988-2 0  9997
2 32791  97.7177  12.6489 0002599 207.9327 152.1764 15.13513582911446
RS-30
1 32953U 08025A   25035.73951556  .00000013  00000-0  26002-4 0  9991
2 32953  82.5051 304.8418 0019219 320.8096  39.1591 12.43158244758027
NOAA-19
1 33591U 09005A   25035.74767426  .00000344  00000-0  20746-3 0  9996
2 33591  99.0157  99.6669 0013585   0.4987 359.6196 14.13277403824475
SRMSAT
1 37841U 11058D   25035.75560878  .00000686  00000-0  22964-3 0  9995
2 37841  19.9703 189.8743 0011756 131.5652 354.4290 14.11354091687677
ZACUBE-1
1 39417U 13066B   25035.41538041  .00009320  00000-0  85162-3 0  9990
2 39417  97.7647 353.4028 0048088 109.1868 251.4565 14.94352582606207
Delfi-N3xt
1 39428U 13066N   25035.26833375  .00013980  00000-0  15174-2 0  9995
2 39428  97.8370 314.5760 0091527  53.1333 307.8228 14.85183852600450
GOMX-1
1 39430U 13066Q   25035.82387012  .00005048  00000-0  80162-3 0  9998
2 39430  97.7004 262.0785 0133275 231.2073 127.7168 14.66717309597116
LO-74
1 39440U 13066AA  25035.82665333  .00007546  00000-0  79810-3 0  9997
2 39440  97.8371 341.5161 0062945 230.2692 129.2967 14.88011097604070
AO-73
1 39444U 13066AE  25035.40922533  .00012955  00000-0  10535-2 0  9991
2 39444  97.7487 357.3871 0043547  85.9727 274.6472 14.98945531604813
DTUSAT-2
1 40030U 14033W   25035.45329876  .00013982  00000-0  98470-3 0  9991
2 40030  98.0407   1.6125 0011383 118.4016 241.8358 15.05100768577552
EO-80
1 40032U 14033Y   25035.61350747  .00013582  00000-0  95431-3 0  9992
2 40032  98.0306   1.6032 0011289  69.4694 290.7742 15.05194922578074
XW-2C
1 40906U 15049H   25035.82270920  .00618802  17212-3  12547-2 0  9995
2 40906  97.4417  70.4418 0004068 160.4881 199.6553 15.99561056520735
LILACSAT-2
1 40908U 15049K   25035.86324936  .00017048  00000-0  51085-3 0  9998
2 40908  97.5175  53.5029 0008365 241.8541 118.1857 15.34539090519070
IO-86
1 40931U 15052B   25029.03811298  .00001879  00000-0  16388-3 0  9994
2 40931   5.9985 178.0957 0012329  44.5838 315.5281 14.78544596504930
Horyu-4
1 41340U 16012D   25035.61402539  .00031215  00000-0  10702-2 0  9991
2 41340  30.9980 247.6139 0006000 205.7001 154.3344 15.28972524493595
Lapan A3
1 41603U 16040E   25035.77974763  .00007500  00000-0  27338-3 0  9998
2 41603  97.1400  45.3896 0011307   5.1051 355.0302 15.28388874478715
CAS-2T
1 41847U 16066G   25035.61252185  .00003838  00000-0  55698-3 0  9996
2 41847  98.4339 111.1427 0348223 196.2132 162.7689 14.42857570432994
CAS-4B
1 42759U 17034B   25035.83625406  .00051393  00000-0  10069-2 0  9990
2 42759  43.0130 335.8598 0015326 145.5965 214.5889 15.46481510423183
CAS-4A
1 42761U 17034D   25035.80440626  .00052524  00000-0  10130-2 0  9995
2 42761  43.0168 334.0302 0016639 152.1628 208.0125 15.46904861423190
TechnoSat
1 42829U 17042E   25035.45441283  .00005786  00000-0  46645-3 0  9999
2 42829  97.3910 210.2314 0012516   1.7982 358.3285 15.00203525411958
AO-91
1 43017U 17073E   25035.38368714  .00016135  00000-0  87974-3 0  9992
2 43017  97.5486 269.4213 0181919 232.5877 125.8671 15.01319663390407
S-Net D
1 43186U 18014G   25035.25844460  .00009358  00000-0  58549-3 0  9993
2 43186  97.5739 299.5486 0007845 302.8763  57.1710 15.09602701383455
S-Net B
1 43187U 18014H   25035.26239338  .00009682  00000-0  60576-3 0  9990
2 43187  97.5744 299.5176 0008555 296.3682  63.6668 15.09588809383450
S-Net A
1 43188U 18014J   25035.25921996  .00009451  00000-0  59114-3 0  9998
2 43188  97.5753 299.6492 0008390 297.5009  62.5367 15.09607093383457
S-Net C
1 43189U 18014K   25035.26451689  .00009689  00000-0  60604-3 0  9996
2 43189  97.5768 299.6470 0009970 287.5809  72.4330 15.09587008382005
Ten-Koh
1 43677U 18084G   25035.58965817  .00006051  00000-0  50023-3 0  9997
2 43677  98.0824 202.9144 0011917 324.2109  35.8313 14.99276413341504
PO-101
1 43678U 18084H   25035.86684666  .00003261  00000-0  28698-3 0  9992
2 43678  98.0906 207.3824 0008358 346.1316  13.9674 14.97233214341718
QO-100
1 43700U 18090A   25035.54592560  .00000147  00000-0  00000-0 0  9995
2 43700   0.0059 148.0962 0001184 162.2866  46.8397  1.00268904 22680
MinXSS-2
1 43758U 18099A   25035.16489060  .00020874  00000-0  97718-3 0  9999
2 43758  97.5208 101.2062 0012462 233.9570 126.0510 15.19691586337881
AO-95
1 43770U 18099N   25035.59854183  .00014913  00000-0  83532-3 0  9998
2 43770  97.5118  95.2553 0010447 287.6953  72.3138 15.13469676337622
RANGE-A
1 43773U 18099R   25035.60442357  .00008643  00000-0  57936-3 0  9991
2 43773  97.4696  87.6612 0010287 259.4229 100.5841 15.07060700337387
MOVE-II
1 43780U 18099Y   25035.13809834  .00067323  00000-0  16568-2 0  9999
2 43780  97.4854 105.0968 0003952 240.4408 119.6444 15.40361276338302
SNUSat 2
1 43782U 18099AA  25035.55978508  .00012867  00000-0  76294-3 0  9998
2 43782  97.4808  92.9304 0011919 221.8984 138.1335 15.11436220337590
SnugLite
1 43784U 18099AC  25035.38988459  .00014742  00000-0  82016-3 0  9990
2 43784  97.4618  92.1256 0002895 215.7396 144.3642 15.13754805337674
ITASat 1
1 43786U 18099AE  25035.57658566  .00012080  00000-0  74075-3 0  9995
2 43786  97.4768  92.7846 0014082 278.4569  81.5064 15.10207474337573
EAGLET 1
1 43790U 18099AJ  25035.55749165  .00008092  00000-0  54070-3 0  9995
2 43790  97.4971  93.0630 0011212 256.8460 103.1517 15.07192492337226
ESEO
1 43792U 18099AL  25035.57610077  .00003109  00000-0  24312-3 0  9998
2 43792  97.4637  87.9458 0009579 213.8804 146.1810 15.01740244337057
CSIM
1 43793U 18099AM  25035.12449615  .00070068  00000-0  17257-2 0  9995
2 43793  97.5028 107.0348 0007482 216.9534 143.1197 15.40305273338148
JO-97
1 43803U 18099AX  25035.79894752  .00017868  00000-0  92480-3 0  9997
2 43803  97.4864  96.2519 0007495 214.2391 145.8359 15.16260457337833
Suomi 100
1 43804U 18099AY  25035.77119736  .00016844  00000-0  91553-3 0  9991
2 43804  97.4934  95.8125 0012644 218.1776 141.8561 15.14492726337781
ISAT
1 43879U 18111D   25035.55733108  .00029460  00000-0  12651-2 0  9998
2 43879  97.6036 307.7913 0007825 279.4146  80.6206 15.22620737334624
UWE-4
1 43880U 18111E   25035.19989912  .00022097  00000-0  10243-2 0  9990
2 43880  97.5977 306.6493 0011478 293.1215  66.8809 15.20030625334544
Sparrow
1 43881U 18111F   25035.69126856  .00029974  00000-0  12547-2 0  9996
2 43881  97.6161 310.3781 0006744 332.7332  27.3549 15.23490267332729
